THY5NX LKPR-LTFM

Flight info

Callsign THY5NX
Flight time 1h 56m
Altitude 35000
Route VOZ DCT LIKSA DCT MAVOR DCT TEGRI DCT TIMUR L606 GASRU T390 RILEX
Aircraft B738/M-SDE2E3FGHIRWXY/LB1

Departure

Time 2026-05-06 20:08
Airport Václav Havel Airport Prague (LKPR)

Arrival

Time 2026-05-06 22:05
Airport İstanbul Airport (LTFM)
Time Latitude Longitude Altitude Speed Heading
2026-05-06 19:37 50.10899 14.26648 1173 ft 0 kts 214°
2026-05-06 19:46 50.10914 14.26665 1171 ft 4 kts 219°
2026-05-06 19:47 50.10930 14.26693 1172 ft 4 kts 260°
2026-05-06 19:47 50.10929 14.26711 1172 ft 0 kts 316°
2026-05-06 19:49 50.10935 14.26703 1171 ft 4 kts 316°
2026-05-06 19:50 50.10964 14.26651 1172 ft 9 kts 310°
2026-05-06 19:50 50.11011 14.26572 1171 ft 10 kts 311°
2026-05-06 19:50 50.11064 14.26478 1173 ft 12 kts 310°
2026-05-06 19:50 50.11085 14.26354 1170 ft 12 kts 278°
2026-05-06 19:51 50.11076 14.26241 1167 ft 10 kts 244°
2026-05-06 19:51 50.11046 14.26140 1170 ft 10 kts 246°
2026-05-06 19:51 50.11015 14.26038 1167 ft 11 kts 245°
2026-05-06 19:51 50.10979 14.25936 1168 ft 11 kts 229°
2026-05-06 19:52 50.10921 14.25867 1167 ft 10 kts 216°
2026-05-06 19:52 50.10856 14.25796 1169 ft 13 kts 214°
2026-05-06 19:52 50.10789 14.25726 1171 ft 5 kts 215°
2026-05-06 19:52 50.10767 14.25702 1172 ft 4 kts 214°
2026-05-06 19:53 50.10751 14.25684 1172 ft 1 kts 214°
2026-05-06 19:53 50.10747 14.25679 1171 ft 2 kts 214°
2026-05-06 19:53 50.10742 14.25675 1171 ft 0 kts 214°
2026-05-06 19:54 50.10735 14.25667 1174 ft 4 kts 214°
2026-05-06 19:54 50.10693 14.25622 1173 ft 9 kts 214°
2026-05-06 19:54 50.10647 14.25573 1176 ft 7 kts 214°
2026-05-06 19:55 50.10610 14.25520 1177 ft 7 kts 242°
2026-05-06 19:55 50.10595 14.25454 1175 ft 3 kts 259°
2026-05-06 19:55 50.10594 14.25449 1175 ft 0 kts 259°
2026-05-06 20:01 50.10592 14.25428 1172 ft 5 kts 259°
2026-05-06 20:01 50.10586 14.25380 1173 ft 0 kts 259°
2026-05-06 20:02 50.10578 14.25313 1174 ft 11 kts 259°
2026-05-06 20:02 50.10575 14.25284 1171 ft 0 kts 261°
2026-05-06 20:06 50.10574 14.25274 1169 ft 3 kts 260°
2026-05-06 20:06 50.10555 14.25192 1169 ft 11 kts 229°
2026-05-06 20:07 50.10487 14.25190 1170 ft 11 kts 142°
2026-05-06 20:07 50.10443 14.25274 1174 ft 15 kts 129°
2026-05-06 20:07 50.10255 14.25665 1187 ft 81 kts 126°
2026-05-06 20:07 50.09787 14.26642 1215 ft 141 kts 127°
2026-05-06 20:08 50.09117 14.27994 1638 ft 160 kts 126°
2026-05-06 20:08 50.08460 14.29389 2436 ft 167 kts 124°
2026-05-06 20:08 50.07722 14.30932 2955 ft 186 kts 126°
2026-05-06 20:08 50.06915 14.32588 3613 ft 197 kts 127°
2026-05-06 20:09 50.06076 14.34311 4348 ft 201 kts 128°
2026-05-06 20:09 50.05197 14.36112 4748 ft 221 kts 129°
2026-05-06 20:09 50.04220 14.38117 5004 ft 242 kts 129°
2026-05-06 20:09 50.03169 14.40281 5010 ft 249 kts 128°
2026-05-06 20:10 50.02122 14.42436 5008 ft 252 kts 128°
2026-05-06 20:10 50.01043 14.44653 5022 ft 267 kts 128°
2026-05-06 20:10 49.99904 14.46992 5662 ft 275 kts 129°
2026-05-06 20:10 49.98717 14.49345 6618 ft 274 kts 137°
2026-05-06 20:11 49.97181 14.51026 7477 ft 271 kts 155°
2026-05-06 20:11 49.95499 14.52413 8315 ft 275 kts 155°
2026-05-06 20:11 49.93796 14.53805 9186 ft 278 kts 156°
2026-05-06 20:11 49.92072 14.55220 10017 ft 282 kts 155°
2026-05-06 20:12 49.90275 14.56699 10357 ft 305 kts 155°
2026-05-06 20:12 49.88328 14.58308 10549 ft 330 kts 155°
2026-05-06 20:12 49.86233 14.60048 10726 ft 353 kts 154°
2026-05-06 20:12 49.84010 14.61904 10887 ft 374 kts 154°
2026-05-06 20:13 49.81674 14.63858 11219 ft 386 kts 154°
2026-05-06 20:13 49.79330 14.65821 11846 ft 390 kts 154°
2026-05-06 20:13 49.76904 14.67851 12548 ft 393 kts 154°
2026-05-06 20:13 49.74524 14.69836 13229 ft 396 kts 154°
2026-05-06 20:14 49.72084 14.71864 13871 ft 400 kts 154°
2026-05-06 20:14 49.69627 14.73904 14500 ft 403 kts 155°
2026-05-06 20:14 49.67144 14.75963 15134 ft 407 kts 155°
2026-05-06 20:14 49.64647 14.78033 15663 ft 407 kts 155°
2026-05-06 20:15 49.62140 14.80111 15748 ft 408 kts 155°
2026-05-06 20:15 49.59621 14.82196 15994 ft 414 kts 155°
2026-05-06 20:15 49.57076 14.84299 16687 ft 415 kts 155°
2026-05-06 20:15 49.54565 14.86513 17382 ft 420 kts 148°
2026-05-06 20:16 49.52470 14.89736 17970 ft 434 kts 129°
2026-05-06 20:16 49.50978 14.93839 18486 ft 443 kts 121°
2026-05-06 20:16 49.49611 14.98107 18953 ft 447 kts 121°
2026-05-06 20:16 49.48243 15.02420 19442 ft 451 kts 121°
2026-05-06 20:17 49.46859 15.06761 19963 ft 453 kts 121°
2026-05-06 20:17 49.45458 15.11118 20469 ft 455 kts 121°
2026-05-06 20:17 49.44042 15.15475 20957 ft 458 kts 122°
2026-05-06 20:17 49.42607 15.19857 21418 ft 460 kts 122°
2026-05-06 20:18 49.41162 15.24248 21870 ft 463 kts 122°
2026-05-06 20:18 49.39702 15.28668 22277 ft 466 kts 122°
2026-05-06 20:18 49.38230 15.33115 22654 ft 469 kts 122°
2026-05-06 20:18 49.36747 15.37589 23072 ft 471 kts 122°
2026-05-06 20:19 49.35257 15.42079 23458 ft 474 kts 122°
2026-05-06 20:19 49.33757 15.46591 23768 ft 476 kts 122°
2026-05-06 20:19 49.32244 15.51134 24068 ft 479 kts 122°
2026-05-06 20:19 49.30724 15.55690 24376 ft 482 kts 122°
2026-05-06 20:20 49.29196 15.60266 24689 ft 484 kts 122°
2026-05-06 20:20 49.27657 15.64864 24985 ft 486 kts 122°
2026-05-06 20:20 49.26108 15.69484 25269 ft 489 kts 123°
2026-05-06 20:20 49.24550 15.74123 25523 ft 491 kts 122°
2026-05-06 20:21 49.22985 15.78774 25755 ft 493 kts 122°
2026-05-06 20:21 49.21415 15.83433 25984 ft 494 kts 122°
2026-05-06 20:21 49.19840 15.88097 26264 ft 494 kts 122°
2026-05-06 20:21 49.18265 15.92758 26599 ft 493 kts 123°
2026-05-06 20:22 49.16690 15.97408 26939 ft 492 kts 123°
2026-05-06 20:22 49.15158 16.02076 27265 ft 494 kts 120°
2026-05-06 20:22 49.13941 16.07026 27561 ft 499 kts 113°
2026-05-06 20:22 49.12892 16.12075 27853 ft 500 kts 112°
2026-05-06 20:23 49.11873 16.17156 28114 ft 502 kts 112°
2026-05-06 20:23 49.10849 16.22251 28411 ft 502 kts 112°
2026-05-06 20:23 49.09812 16.27327 28769 ft 501 kts 112°
2026-05-06 20:23 49.08758 16.32387 29141 ft 500 kts 112°
2026-05-06 20:24 49.07693 16.37422 29475 ft 499 kts 113°
2026-05-06 20:24 49.06616 16.42458 29792 ft 499 kts 113°
2026-05-06 20:24 49.05534 16.47487 30076 ft 499 kts 113°
2026-05-06 20:24 49.04451 16.52510 30337 ft 499 kts 113°
2026-05-06 20:25 49.03363 16.57542 30556 ft 500 kts 113°
2026-05-06 20:25 49.02273 16.62579 30799 ft 501 kts 113°
2026-05-06 20:25 49.01195 16.67554 31098 ft 500 kts 113°
2026-05-06 20:25 49.00104 16.72578 31412 ft 499 kts 113°
2026-05-06 20:26 48.99014 16.77589 31703 ft 499 kts 113°
2026-05-06 20:26 48.97920 16.82601 31955 ft 499 kts 113°
2026-05-06 20:26 48.96824 16.87611 32213 ft 499 kts 113°
2026-05-06 20:26 48.96083 16.90992 32393 ft 499 kts 113°
2026-05-06 20:27 48.94631 16.97603 32852 ft 495 kts 113°
2026-05-06 20:27 48.93895 17.00951 33106 ft 494 kts 113°
2026-05-06 20:27 48.92801 17.05908 33411 ft 494 kts 113°
2026-05-06 20:27 48.91706 17.10859 33642 ft 494 kts 113°
2026-05-06 20:28 48.90607 17.15812 33882 ft 494 kts 113°
2026-05-06 20:28 48.89514 17.20734 34253 ft 489 kts 113°
2026-05-06 20:28 48.88426 17.25624 34589 ft 487 kts 113°
2026-05-06 20:28 48.87338 17.30496 34780 ft 488 kts 113°
2026-05-06 20:29 48.85141 17.40298 34789 ft 491 kts 113°
2026-05-06 20:29 48.82831 17.49989 34779 ft 484 kts 121°
2026-05-06 20:30 48.76914 17.61783 34797 ft 466 kts 141°
2026-05-06 20:31 48.72245 17.68599 34775 ft 466 kts 141°
2026-05-06 20:31 48.67593 17.75418 34787 ft 466 kts 141°
2026-05-06 20:32 48.62961 17.82260 34831 ft 466 kts 141°
2026-05-06 20:32 48.58322 17.89120 34833 ft 466 kts 141°
2026-05-06 20:33 48.53681 17.95968 34826 ft 467 kts 141°
2026-05-06 20:33 48.49033 18.02806 34818 ft 466 kts 140°
2026-05-06 20:34 48.44385 18.09626 34842 ft 466 kts 140°
2026-05-06 20:34 48.39732 18.16433 34824 ft 466 kts 140°
2026-05-06 20:35 48.35070 18.23234 34851 ft 467 kts 140°
2026-05-06 20:35 48.30403 18.30025 34838 ft 467 kts 140°
2026-05-06 20:36 48.25760 18.36763 34893 ft 471 kts 140°
2026-05-06 20:36 48.23403 18.40175 35092 ft 470 kts 140°
2026-05-06 20:36 48.21058 18.43568 35377 ft 468 kts 140°
2026-05-06 20:36 48.18715 18.46954 35668 ft 467 kts 140°
2026-05-06 20:37 48.16379 18.50324 35889 ft 467 kts 140°
2026-05-06 20:37 48.14035 18.53701 36077 ft 467 kts 140°
2026-05-06 20:37 48.11689 18.57075 36303 ft 467 kts 140°
2026-05-06 20:37 48.09381 18.60391 36540 ft 466 kts 140°
2026-05-06 20:38 48.07045 18.63742 36747 ft 465 kts 140°
2026-05-06 20:38 48.04707 18.67093 36952 ft 465 kts 140°
2026-05-06 20:38 48.02372 18.70435 37172 ft 465 kts 140°
2026-05-06 20:38 48.00036 18.73773 37382 ft 465 kts 140°
2026-05-06 20:39 47.97696 18.77112 37581 ft 465 kts 140°
2026-05-06 20:39 47.95360 18.80443 37770 ft 465 kts 140°
2026-05-06 20:39 47.93020 18.83773 37929 ft 466 kts 140°
2026-05-06 20:39 47.90676 18.87105 38124 ft 465 kts 140°
2026-05-06 20:40 47.88334 18.90430 38346 ft 465 kts 140°
2026-05-06 20:40 47.85993 18.93750 38514 ft 464 kts 140°
2026-05-06 20:40 47.83660 18.97055 38734 ft 462 kts 140°
2026-05-06 20:40 47.81335 19.00344 38881 ft 461 kts 140°
2026-05-06 20:41 47.79003 19.03637 38885 ft 464 kts 140°
2026-05-06 20:41 47.74311 19.10248 38908 ft 465 kts 140°
2026-05-06 20:42 47.69622 19.16841 38916 ft 464 kts 140°
2026-05-06 20:42 47.64930 19.23421 38901 ft 464 kts 140°
2026-05-06 20:43 47.60245 19.29974 38924 ft 463 kts 140°
2026-05-06 20:43 47.55557 19.36514 38934 ft 462 kts 140°
2026-05-06 20:44 47.50875 19.43028 38936 ft 462 kts 140°
2026-05-06 20:44 47.46184 19.49540 38934 ft 462 kts 140°
2026-05-06 20:45 47.41494 19.56032 38922 ft 462 kts 140°
2026-05-06 20:45 47.36805 19.62507 38922 ft 461 kts 140°
2026-05-06 20:46 47.32114 19.68967 38907 ft 461 kts 140°
2026-05-06 20:46 47.27451 19.75372 38909 ft 461 kts 140°
2026-05-06 20:47 47.22752 19.81812 38898 ft 461 kts 140°
2026-05-06 20:47 47.18050 19.88238 38910 ft 462 kts 141°
2026-05-06 20:48 47.13345 19.94652 38909 ft 462 kts 141°
2026-05-06 20:48 47.08631 20.01064 38919 ft 462 kts 141°
2026-05-06 20:49 47.03911 20.07465 38921 ft 462 kts 141°
2026-05-06 20:49 46.99189 20.13856 38918 ft 462 kts 141°
2026-05-06 20:50 46.94470 20.20224 38921 ft 461 kts 141°
2026-05-06 20:50 46.89749 20.26580 38911 ft 461 kts 141°
2026-05-06 20:51 46.85023 20.32927 38918 ft 461 kts 141°
2026-05-06 20:51 46.80296 20.39258 38904 ft 461 kts 141°
2026-05-06 20:52 46.75569 20.45575 38909 ft 461 kts 141°
2026-05-06 20:52 46.70837 20.51882 38916 ft 461 kts 141°
2026-05-06 20:53 46.66098 20.58183 38916 ft 461 kts 141°
2026-05-06 20:53 46.61356 20.64472 38913 ft 461 kts 141°
2026-05-06 20:54 46.56611 20.70751 38916 ft 461 kts 141°
2026-05-06 20:54 46.51901 20.76967 38910 ft 460 kts 141°
2026-05-06 20:55 46.47161 20.83208 38918 ft 460 kts 141°
2026-05-06 20:55 46.42413 20.89444 38921 ft 460 kts 141°
2026-05-06 20:56 46.37667 20.95663 38918 ft 460 kts 141°
2026-05-06 20:56 46.32912 21.01879 38935 ft 460 kts 141°
2026-05-06 20:57 46.28152 21.08087 38937 ft 461 kts 141°
2026-05-06 20:57 46.23387 21.14275 38936 ft 461 kts 141°
2026-05-06 20:58 46.18603 21.20449 38932 ft 461 kts 142°
2026-05-06 20:58 46.13822 21.26606 38941 ft 461 kts 142°
2026-05-06 20:59 46.09032 21.32765 38939 ft 461 kts 142°
2026-05-06 20:59 46.04241 21.38911 38942 ft 461 kts 142°
2026-05-06 21:00 45.99445 21.45049 38939 ft 461 kts 142°
2026-05-06 21:00 45.94645 21.51177 38932 ft 462 kts 142°
2026-05-06 21:01 45.89839 21.57299 38950 ft 462 kts 142°
2026-05-06 21:01 45.85025 21.63415 38952 ft 462 kts 142°
2026-05-06 21:02 45.80209 21.69520 38956 ft 462 kts 142°
2026-05-06 21:02 45.75382 21.75623 38948 ft 463 kts 142°
2026-05-06 21:03 45.70544 21.81726 38959 ft 464 kts 142°
2026-05-06 21:03 45.65689 21.87835 38957 ft 465 kts 142°
2026-05-06 21:04 45.60832 21.93933 38975 ft 465 kts 142°
2026-05-06 21:04 45.55965 22.00029 38959 ft 466 kts 142°
2026-05-06 21:05 45.51120 22.06082 38984 ft 466 kts 142°
2026-05-06 21:05 45.46233 22.12173 38981 ft 467 kts 142°
2026-05-06 21:06 45.41336 22.18262 38991 ft 467 kts 142°
2026-05-06 21:06 45.36437 22.24340 38994 ft 467 kts 142°
2026-05-06 21:07 45.31529 22.30414 39010 ft 468 kts 142°
2026-05-06 21:07 45.26605 22.36492 39017 ft 469 kts 142°
2026-05-06 21:08 45.21666 22.42575 39022 ft 470 kts 142°
2026-05-06 21:08 45.16723 22.48649 39010 ft 470 kts 142°
2026-05-06 21:09 45.11767 22.54723 39029 ft 472 kts 142°
2026-05-06 21:09 45.06805 22.60790 39019 ft 472 kts 142°
2026-05-06 21:10 45.01833 22.66855 39026 ft 472 kts 142°
2026-05-06 21:10 44.96856 22.72913 39014 ft 472 kts 142°
2026-05-06 21:11 44.91871 22.78964 39029 ft 473 kts 142°
2026-05-06 21:11 44.86869 22.85023 39017 ft 474 kts 142°
2026-05-06 21:12 44.81859 22.91077 39008 ft 475 kts 142°
2026-05-06 21:12 44.76881 22.97079 39007 ft 474 kts 142°
2026-05-06 21:13 44.71862 23.03115 39008 ft 474 kts 142°
2026-05-06 21:13 44.66845 23.09135 39004 ft 474 kts 142°
2026-05-06 21:14 44.61828 23.15140 39001 ft 474 kts 142°
2026-05-06 21:14 44.56808 23.21134 38996 ft 474 kts 142°
2026-05-06 21:15 44.51777 23.27127 38999 ft 474 kts 142°
2026-05-06 21:15 44.46747 23.33106 39001 ft 475 kts 142°
2026-05-06 21:16 44.42554 23.38079 38994 ft 475 kts 142°
2026-05-06 21:16 44.37505 23.44054 38998 ft 475 kts 142°
2026-05-06 21:17 44.32449 23.50024 39000 ft 476 kts 142°
2026-05-06 21:17 44.27383 23.55992 38991 ft 477 kts 142°
2026-05-06 21:18 44.22302 23.61962 38983 ft 478 kts 142°
2026-05-06 21:18 44.17218 23.67923 38984 ft 478 kts 142°
2026-05-06 21:19 44.12125 23.73881 38984 ft 479 kts 142°
2026-05-06 21:19 44.07020 23.79838 38983 ft 479 kts 142°
2026-05-06 21:20 44.01907 23.85791 38980 ft 480 kts 142°
2026-05-06 21:20 43.96787 23.91739 38974 ft 480 kts 142°
2026-05-06 21:21 43.91654 23.97688 38977 ft 481 kts 142°
2026-05-06 21:21 43.86514 24.03632 38980 ft 482 kts 142°
2026-05-06 21:22 43.81360 24.09578 38978 ft 482 kts 142°
2026-05-06 21:22 43.76202 24.15515 38970 ft 483 kts 141°
2026-05-06 21:23 43.71029 24.21458 38972 ft 483 kts 142°
2026-05-06 21:23 43.65980 24.27595 38980 ft 484 kts 137°
2026-05-06 21:24 43.61153 24.34083 38980 ft 484 kts 136°
2026-05-06 21:24 43.56342 24.40590 38978 ft 485 kts 136°
2026-05-06 21:25 43.51497 24.47057 38977 ft 485 kts 137°
2026-05-06 21:25 43.46666 24.53452 38981 ft 485 kts 137°
2026-05-06 21:26 43.41768 24.59915 38979 ft 485 kts 137°
2026-05-06 21:26 43.36929 24.66289 38988 ft 485 kts 137°
2026-05-06 21:27 43.32049 24.72705 38994 ft 485 kts 137°
2026-05-06 21:27 43.27165 24.79110 38995 ft 485 kts 137°
2026-05-06 21:28 43.22282 24.85499 39009 ft 485 kts 136°
2026-05-06 21:28 43.17389 24.91889 39007 ft 486 kts 136°
2026-05-06 21:29 43.12495 24.98264 38999 ft 486 kts 137°
2026-05-06 21:29 43.07599 25.04631 39013 ft 486 kts 137°
2026-05-06 21:30 43.02699 25.10994 39022 ft 486 kts 136°
2026-05-06 21:30 42.97796 25.17350 39029 ft 486 kts 136°
2026-05-06 21:31 42.92882 25.23705 39030 ft 486 kts 137°
2026-05-06 21:31 42.88000 25.30003 39028 ft 486 kts 137°
2026-05-06 21:32 42.83079 25.36338 39042 ft 487 kts 137°
2026-05-06 21:32 42.75689 25.45822 39046 ft 487 kts 137°
2026-05-06 21:33 42.70813 25.52063 39054 ft 487 kts 137°
2026-05-06 21:33 42.65872 25.58372 39049 ft 487 kts 137°
2026-05-06 21:34 42.60929 25.64670 39039 ft 487 kts 137°
2026-05-06 21:34 42.55987 25.70952 39059 ft 487 kts 137°
2026-05-06 21:35 42.51040 25.77226 39061 ft 487 kts 137°
2026-05-06 21:35 42.46085 25.83495 39062 ft 487 kts 137°
2026-05-06 21:36 42.41129 25.89754 39060 ft 487 kts 137°
2026-05-06 21:36 42.36164 25.96008 39068 ft 488 kts 137°
2026-05-06 21:37 42.31192 26.02254 39048 ft 488 kts 137°
2026-05-06 21:37 42.26357 26.08682 39049 ft 488 kts 129°
2026-05-06 21:38 42.22214 26.15951 39054 ft 489 kts 125°
2026-05-06 21:38 42.18257 26.23410 39064 ft 489 kts 124°
2026-05-06 21:39 42.14286 26.30871 39057 ft 490 kts 125°
2026-05-06 21:39 42.10298 26.38253 39060 ft 491 kts 125°
2026-05-06 21:40 42.06261 26.45661 39065 ft 491 kts 125°
2026-05-06 21:40 42.02213 26.53065 38938 ft 492 kts 125°
2026-05-06 21:41 42.00191 26.56758 38468 ft 488 kts 125°
2026-05-06 21:41 41.98175 26.60435 37700 ft 488 kts 125°
2026-05-06 21:41 41.96167 26.64096 37087 ft 486 kts 125°
2026-05-06 21:41 41.94166 26.67740 36445 ft 485 kts 125°
2026-05-06 21:42 41.92163 26.71383 35798 ft 484 kts 124°
2026-05-06 21:42 41.90161 26.75021 35096 ft 486 kts 124°
2026-05-06 21:42 41.88149 26.78671 34374 ft 488 kts 124°
2026-05-06 21:42 41.86128 26.82336 33547 ft 491 kts 124°
2026-05-06 21:43 41.84093 26.86021 32740 ft 492 kts 124°
2026-05-06 21:43 41.82054 26.89708 31933 ft 493 kts 124°
2026-05-06 21:43 41.80007 26.93402 31110 ft 494 kts 124°
2026-05-06 21:43 41.77958 26.97098 30247 ft 496 kts 124°
2026-05-06 21:44 41.75892 27.00820 29203 ft 498 kts 124°
2026-05-06 21:44 41.73819 27.04549 28185 ft 499 kts 124°
2026-05-06 21:44 41.71746 27.08273 27154 ft 499 kts 124°
2026-05-06 21:44 41.69674 27.11992 26093 ft 499 kts 124°
2026-05-06 21:45 41.67605 27.15698 25324 ft 493 kts 124°
2026-05-06 21:45 41.65570 27.19338 24596 ft 487 kts 124°
2026-05-06 21:45 41.63552 27.22945 23822 ft 482 kts 124°
2026-05-06 21:45 41.61556 27.26509 22938 ft 477 kts 124°
2026-05-06 21:46 41.59581 27.30030 22143 ft 470 kts 124°
2026-05-06 21:46 41.57636 27.33496 21377 ft 463 kts 124°
2026-05-06 21:46 41.55716 27.36914 20633 ft 457 kts 124°
2026-05-06 21:46 41.53820 27.40284 19914 ft 451 kts 124°
2026-05-06 21:47 41.51950 27.43605 19199 ft 445 kts 124°
2026-05-06 21:47 41.50100 27.46889 18475 ft 441 kts 124°
2026-05-06 21:47 41.48268 27.50135 17672 ft 436 kts 124°
2026-05-06 21:47 41.46451 27.53352 16922 ft 431 kts 124°
2026-05-06 21:48 41.44663 27.56514 16191 ft 425 kts 125°
2026-05-06 21:48 41.42918 27.59597 15516 ft 419 kts 125°
2026-05-06 21:48 41.41148 27.62721 14821 ft 414 kts 125°
2026-05-06 21:48 41.39444 27.65726 14148 ft 410 kts 125°
2026-05-06 21:49 41.37712 27.68776 13411 ft 406 kts 125°
2026-05-06 21:49 41.36041 27.71717 12693 ft 401 kts 125°
2026-05-06 21:49 41.34345 27.74700 12003 ft 397 kts 125°
2026-05-06 21:49 41.32710 27.77570 11348 ft 392 kts 125°
2026-05-06 21:50 41.31092 27.80408 11162 ft 376 kts 125°
2026-05-06 21:50 41.29543 27.83121 10990 ft 361 kts 125°
2026-05-06 21:50 41.28086 27.85670 10842 ft 347 kts 125°
2026-05-06 21:50 41.26647 27.88187 10631 ft 337 kts 125°
2026-05-06 21:51 41.25253 27.90625 10484 ft 326 kts 125°
2026-05-06 21:51 41.23907 27.92983 10327 ft 316 kts 124°
2026-05-06 21:51 41.22779 27.95473 10072 ft 316 kts 113°
2026-05-06 21:51 41.21848 27.98253 9862 ft 346 kts 110°
2026-05-06 21:52 41.20931 28.01227 9595 ft 346 kts 109°
2026-05-06 21:52 41.20013 28.04230 9353 ft 363 kts 110°
2026-05-06 21:52 41.19051 28.07345 9094 ft 362 kts 110°
2026-05-06 21:52 41.18094 28.10389 8826 ft 353 kts 110°
2026-05-06 21:53 41.17153 28.13342 8563 ft 341 kts 110°
2026-05-06 21:53 41.16238 28.16194 8305 ft 331 kts 111°
2026-05-06 21:53 41.15345 28.18965 8043 ft 322 kts 111°
2026-05-06 21:53 41.14473 28.21666 7787 ft 315 kts 111°
2026-05-06 21:54 41.13620 28.24303 7520 ft 308 kts 111°
2026-05-06 21:54 41.12784 28.26885 7280 ft 302 kts 111°
2026-05-06 21:54 41.11963 28.29418 7027 ft 296 kts 111°
2026-05-06 21:54 41.11154 28.31911 6774 ft 292 kts 111°
2026-05-06 21:55 41.10359 28.34360 6541 ft 287 kts 111°
2026-05-06 21:55 41.09574 28.36775 6288 ft 283 kts 111°
2026-05-06 21:55 41.08801 28.39152 6036 ft 280 kts 111°
2026-05-06 21:55 41.08034 28.41508 5775 ft 277 kts 111°
2026-05-06 21:56 41.07273 28.43845 5533 ft 276 kts 112°
2026-05-06 21:56 41.06515 28.46169 5275 ft 274 kts 112°
2026-05-06 21:56 41.05788 28.48397 5075 ft 274 kts 112°
2026-05-06 21:56 41.05013 28.50769 5030 ft 279 kts 112°
2026-05-06 21:57 41.04240 28.53133 5002 ft 278 kts 113°
2026-05-06 21:57 41.03475 28.55471 4992 ft 276 kts 113°
2026-05-06 21:57 41.02714 28.57794 4985 ft 274 kts 113°
2026-05-06 21:57 41.01956 28.60105 4991 ft 275 kts 113°
2026-05-06 21:58 41.01191 28.62439 4998 ft 277 kts 113°
2026-05-06 21:58 41.00425 28.64770 4989 ft 273 kts 113°
2026-05-06 21:58 40.99682 28.67026 4985 ft 261 kts 112°
2026-05-06 21:58 40.99179 28.69228 4970 ft 249 kts 89°
2026-05-06 21:59 40.99646 28.71335 4983 ft 231 kts 48°
2026-05-06 21:59 41.00901 28.72459 4998 ft 215 kts
2026-05-06 21:59 41.02364 28.72779 4886 ft 214 kts
2026-05-06 21:59 41.03841 28.73033 4641 ft 215 kts
2026-05-06 22:00 41.05326 28.73185 4376 ft 212 kts 357°
2026-05-06 22:00 41.06759 28.73167 4097 ft 207 kts 355°
2026-05-06 22:00 41.08187 28.73128 3830 ft 205 kts 355°
2026-05-06 22:00 41.09625 28.73097 3562 ft 208 kts 356°
2026-05-06 22:01 41.11082 28.73070 3277 ft 209 kts 356°
2026-05-06 22:01 41.12524 28.73042 2993 ft 206 kts 357°
2026-05-06 22:01 41.13941 28.73015 2724 ft 201 kts 357°
2026-05-06 22:01 41.15330 28.72988 2453 ft 198 kts 357°
2026-05-06 22:02 41.16699 28.72961 2193 ft 194 kts 358°
2026-05-06 22:02 41.18022 28.72935 1935 ft 186 kts 358°
2026-05-06 22:02 41.19280 28.72911 1711 ft 176 kts 358°
2026-05-06 22:02 41.20476 28.72887 1475 ft 167 kts 358°
2026-05-06 22:03 41.21599 28.72865 1278 ft 154 kts 359°
2026-05-06 22:03 41.22617 28.72845 1057 ft 141 kts
2026-05-06 22:03 41.23586 28.72827 885 ft 139 kts
2026-05-06 22:03 41.24553 28.72807 717 ft 139 kts
2026-05-06 22:04 41.25201 28.72802 561 ft 142 kts
2026-05-06 22:04 41.26529 28.72764 358 ft 142 kts
2026-05-06 22:04 41.27152 28.72754 329 ft 126 kts 358°
2026-05-06 22:04 41.27904 28.72743 329 ft 90 kts 358°
2026-05-06 22:05 41.28434 28.72728 329 ft 31 kts
2026-05-06 22:05 41.28571 28.72762 332 ft 26 kts 19°
2026-05-06 22:05 41.28644 28.72807 333 ft 5 kts 26°
2026-05-06 22:05 41.28677 28.72831 333 ft 6 kts 30°
2026-05-06 22:06 41.28704 28.72852 330 ft 7 kts 31°
2026-05-06 22:06 41.28737 28.72897 332 ft 7 kts 73°
2026-05-06 22:06 41.28699 28.72948 332 ft 13 kts 178°
2026-05-06 22:06 41.28582 28.72949 329 ft 19 kts 179°
2026-05-06 22:07 41.28446 28.72953 331 ft 19 kts 182°
2026-05-06 22:07 41.28314 28.72955 331 ft 19 kts 178°
2026-05-06 22:07 41.28186 28.72959 332 ft 18 kts 179°
2026-05-06 22:07 41.28063 28.72961 332 ft 17 kts 178°
2026-05-06 22:08 41.27944 28.72965 332 ft 17 kts 179°
2026-05-06 22:08 41.27830 28.72966 332 ft 16 kts 178°
2026-05-06 22:08 41.27719 28.72969 330 ft 16 kts 179°
2026-05-06 22:08 41.27614 28.72968 331 ft 15 kts 177°
2026-05-06 22:09 41.27512 28.72973 329 ft 14 kts 179°
2026-05-06 22:09 41.27416 28.72976 330 ft 14 kts 180°
2026-05-06 22:09 41.27323 28.72979 332 ft 13 kts 178°
2026-05-06 22:09 41.27234 28.72981 333 ft 13 kts 179°
2026-05-06 22:10 41.27146 28.72981 331 ft 12 kts 180°
2026-05-06 22:10 41.27057 28.72985 330 ft 14 kts 178°
2026-05-06 22:10 41.26964 28.72995 331 ft 11 kts 152°
2026-05-06 22:10 41.26953 28.73086 332 ft 10 kts 88°
2026-05-06 22:11 41.26955 28.73187 333 ft 12 kts 89°
2026-05-06 22:11 41.26957 28.73304 331 ft 13 kts 88°
2026-05-06 22:11 41.26958 28.73418 332 ft 12 kts 90°
2026-05-06 22:11 41.26960 28.73529 333 ft 12 kts 88°
2026-05-06 22:12 41.26961 28.73638 333 ft 12 kts 89°
2026-05-06 22:12 41.26962 28.73743 333 ft 11 kts 89°
2026-05-06 22:12 41.26963 28.73838 333 ft 6 kts 90°
2026-05-06 22:12 41.26931 28.73873 333 ft 9 kts 182°
2026-05-06 22:13 41.26832 28.73873 332 ft 17 kts 179°
2026-05-06 22:13 41.26740 28.73876 331 ft 1 kts 180°
2026-05-06 22:13 41.26739 28.73876 329 ft 2 kts 180°
2026-05-06 22:13 41.26645 28.73878 330 ft 17 kts 179°
2026-05-06 22:14 41.26598 28.73866 333 ft 5 kts 230°
2026-05-06 22:14 41.26594 28.73802 332 ft 10 kts 270°
2026-05-06 22:14 41.26594 28.73760 330 ft 0 kts 268°